TimeCDT,TemperatureF,Dew PointF,Humidity,Sea Level PressureIn,VisibilityMPH,Wind Direction,Wind SpeedMPH,Gust SpeedMPH,PrecipitationIn,Events,Conditions,WindDirDegrees,DateUTC
12:52 AM,62.1,42.1,48,30.00,10.0,South,9.2,-,N/A,,Clear,180,2013-09-15 05:52:00
1:52 AM,63.0,42.1,46,29.98,10.0,South,10.4,-,N/A,,Scattered Clouds,190,2013-09-15 06:52:00
2:52 AM,62.1,42.1,48,29.98,10.0,South,10.4,-,N/A,,Mostly Cloudy,190,2013-09-15 07:52:00
3:52 AM,62.1,43.0,50,30.00,10.0,Variable,3.5,-,0.00,Rain,Light Rain,0,2013-09-15 08:52:00
4:52 AM,57.9,51.1,78,30.01,9.0,Calm,Calm,-,0.01,Rain,Light Rain,0,2013-09-15 09:52:00
5:52 AM,57.0,51.1,81,30.00,10.0,ENE,6.9,-,0.01,Rain,Light Rain,60,2013-09-15 10:52:00
6:52 AM,57.0,52.0,83,30.01,10.0,East,5.8,-,0.03,Rain,Light Rain,100,2013-09-15 11:52:00
7:52 AM,55.9,53.1,90,29.99,4.0,SE,10.4,-,0.11,Rain,Heavy Rain,140,2013-09-15 12:52:00
8:23 AM,55.4,53.6,94,29.98,2.0,SE,5.8,-,0.08,Rain-Thunderstorm,Thunderstorms and Rain,130,2013-09-15 13:23:00
8:40 AM,55.4,53.6,94,29.97,3.0,SE,6.9,-,0.14,Rain,Light Rain,130,2013-09-15 13:40:00
8:52 AM,55.9,53.1,90,29.97,9.0,SE,8.1,-,0.14,Rain,Light Rain,130,2013-09-15 13:52:00
9:32 AM,55.4,53.6,94,29.98,1.5,SSE,6.9,-,0.10,Rain,Rain,160,2013-09-15 14:32:00
9:42 AM,55.4,53.6,94,29.99,0.8,SSE,9.2,-,0.21,Rain,Heavy Rain,160,2013-09-15 14:42:00
9:47 AM,55.4,53.6,94,29.99,2.0,SSE,8.1,-,0.21,Rain,Light Rain,150,2013-09-15 14:47:00
9:52 AM,55.9,53.1,90,29.98,5.0,SSE,6.9,-,0.22,Rain,Rain,160,2013-09-15 14:52:00
10:15 AM,55.4,53.6,94,29.99,2.5,South,6.9,-,0.04,Rain,Heavy Rain,170,2013-09-15 15:15:00
10:31 AM,57.2,53.6,88,29.97,5.0,SSE,6.9,-,0.07,Rain,Light Rain,160,2013-09-15 15:31:00
10:52 AM,57.9,55.0,90,29.98,10.0,South,6.9,-,0.07,,Overcast,180,2013-09-15 15:52:00
11:52 AM,59.0,55.9,90,29.99,9.0,SSW,8.1,-,0.00,Rain,Light Rain,200,2013-09-15 16:52:00
12:24 PM,62.6,57.2,82,29.98,10.0,South,8.1,-,0.00,,Scattered Clouds,180,2013-09-15 17:24:00
12:52 PM,62.1,57.0,84,29.99,10.0,SW,9.2,-,0.00,,Mostly Cloudy,220,2013-09-15 17:52:00
1:01 PM,62.6,57.2,82,30.00,10.0,SW,8.1,-,N/A,,Mostly Cloudy,220,2013-09-15 18:01:00
1:52 PM,62.1,57.9,86,30.01,6.0,West,4.6,-,0.01,Rain,Light Rain,280,2013-09-15 18:52:00
2:04 PM,62.6,59.0,88,30.01,1.8,Calm,Calm,-,0.03,Rain,Rain,0,2013-09-15 19:04:00
2:44 PM,60.8,59.0,94,30.01,1.5,NW,3.5,-,0.15,Rain,Rain,320,2013-09-15 19:44:00
2:52 PM,61.0,59.0,93,30.01,1.5,NNW,5.8,-,0.16,Rain,Light Rain,340,2013-09-15 19:52:00
3:07 PM,60.8,59.0,94,30.03,3.0,North,4.6,-,0.05,Rain,Light Rain,350,2013-09-15 20:07:00
3:18 PM,62.6,60.8,94,30.02,5.0,North,6.9,-,0.05,,Overcast,360,2013-09-15 20:18:00
3:52 PM,62.1,59.0,90,30.03,10.0,North,11.5,-,0.05,,Overcast,360,2013-09-15 20:52:00
3:57 PM,62.6,57.2,82,30.03,10.0,North,12.7,-,N/A,,Overcast,10,2013-09-15 20:57:00
4:08 PM,62.6,57.2,82,30.04,10.0,North,11.5,-,N/A,,Overcast,10,2013-09-15 21:08:00
4:39 PM,62.6,57.2,82,30.06,10.0,North,11.5,-,N/A,,Overcast,360,2013-09-15 21:39:00
4:52 PM,62.1,57.0,84,30.06,10.0,NNE,8.1,-,N/A,,Overcast,20,2013-09-15 21:52:00
5:52 PM,61.0,55.9,83,30.08,10.0,NNE,10.4,-,N/A,,Overcast,20,2013-09-15 22:52:00
6:52 PM,60.1,55.0,83,30.12,10.0,NNE,9.2,-,N/A,,Overcast,20,2013-09-15 23:52:00
7:52 PM,60.1,55.0,83,30.15,10.0,NNE,9.2,-,N/A,,Overcast,30,2013-09-16 00:52:00
8:52 PM,60.1,54.0,80,30.17,10.0,NNE,6.9,-,N/A,,Overcast,30,2013-09-16 01:52:00
9:18 PM,57.2,53.6,88,30.17,10.0,NNE,6.9,-,N/A,,Scattered Clouds,30,2013-09-16 02:18:00
9:52 PM,55.9,52.0,87,30.20,10.0,NNE,4.6,-,N/A,,Scattered Clouds,30,2013-09-16 02:52:00
10:52 PM,53.1,51.1,93,30.22,10.0,NNE,4.6,-,N/A,,Clear,30,2013-09-16 03:52:00
11:52 PM,52.0,50.0,93,30.22,8.0,North,5.8,-,N/A,,Clear,360,2013-09-16 04:52:00